Location: *
(42.0175°N, 9.4056°E)
Time: 16:23:18
(UTC+00:00)

Terra - Pass Details

Date: 25 August 2019
Orbit: 701 x 703 km, 98.2° (Epoch: 22 September)

Event Time Altitude Azimuth Distance (km) Brightness Sun altitude
Exits shadow 20:53:13 39° 37° (NE) 1,061 2.7 -27.0°
Drops below altitude 10° 20:56:44 10° 360° (N) 2,179 4.9 -27.4°
Sets 20:59:04 0° 354° (N) 3,102 5.9 -27.7°
